Location: Unspecified
(0.0000°N, 0.0000°E)
Time: 15:32:10
(UTC+00:00)

CZ-3C DEB - Pass Details

Date: 20 February 2026
Orbit: 380 x 28980 km, 20.3° (Epoch: 21 March)

Event Time Altitude Azimuth Distance (km) Brightness Sun altitude
Rises 11:31:02 0° 232° (SW) 4,285 ? 74.9°
Reaches altitude 10° 11:32:53 10° 226° (SW) 3,869 ? 75.2°
Maximum altitude 11:44:30 53° 147° (SSE) 4,773 ? 77.0°
Drops below altitude 10° 18:31:22 10° 68° (ENE) 15,839 ? -4.3°
Enters shadow 18:38:34 - 70° (ENE) 14,864 ? -6.1°
